Regional Weather Roundup
Issued by NWS

Home | Current Version | Previous Version | Graphics & Text | Print | Product List | Glossary On
Versions: 1 2 3 4 5 6 7 8 9 10 11 12 13 14 15 16 17 18 19 20 21 22 23 24 25 26 27 28 29 30 31 32 33 34 35 36 37 38 39 40 41 42 43 44 45 46 47 48 49 50
000
ASUS43 KFSD 010802
RWRSD

WEATHER ROUNDUP FOR SOUTH DAKOTA
NATIONAL WEATHER SERVICE SIOUX FALLS SD
300 AM CDT WED APR 01 2015

NOTE: "FAIR" INDICATES FEW OR NO CLOUDS BELOW 12,000 FEET WITH NO
SIGNIFICANT WEATHER AND/OR OBSTRUCTIONS TO VISIBILITY.


SDZ001>005-009-010-012>017-010900-
NORTHWEST AND NORTH CENTRAL SOUTH DAKOTA

CITY           SKY/WX    TMP DP  RH WIND       PRES   REMARKS
BUFFALO          N/A     58  25  28 S10       29.41F
FAITH            N/A     56  23  27 S15       29.47F
MOBRIDGE       CLOUDY    54  29  38 SE12      29.48F
$$

SDZ012>016-024>037-041>051-057-063-072>074-010900-
SOUTHWEST AND SOUTH CENTRAL SOUTH DAKOTA

CITY           SKY/WX    TMP DP  RH WIND       PRES   REMARKS
RAPID CTY ARPT MOCLDY    56  22  26 S7        29.51F
PIERRE         MOCLDY    56  26  31 SE6       29.52F
CUSTER         CLOUDY    53  16  23 W6        29.65F
ELLSWORTH AFB  MOCLDY    57  22  25 S6        29.50F
PHILIP         CLOUDY    68  17  14 S14G22    29.48F
PINE RIDGE     PTCLDY    56  20  24 S17       29.58F
SPEARFISH      FAIR      68  19  15 SW14G21   29.53F
WINNER         FAIR      63  27  25 S20       29.57F
$$

SDZ004>011-016>023-039-040-010900-
NORTHEAST SOUTH DAKOTA

CITY           SKY/WX    TMP DP  RH WIND       PRES   REMARKS
ABERDEEN       CLOUDY    54  32  43 S12       29.56F
WATERTOWN      CLOUDY    52  33  48 S14       29.65F
BROOKINGS      MOCLDY    52  32  46 S14       29.70F
SISSETON         N/A     44  35  70 S10       29.62F
$$

SDZ017-020-022-023-036>040-048>070-010900-
SOUTHEAST SOUTH DAKOTA

CITY           SKY/WX    TMP DP  RH WIND       PRES   REMARKS
SIOUX FALLS    PTCLDY    58  30  34 S18G25    29.71F
HURON          CLOUDY    55  32  41 SE15      29.59F
MITCHELL       MOCLDY    56  33  42 S16       29.63F
YANKTON        CLEAR     59  32  36 S15       29.71F
$$

ABBREVIATIONS USED IN REMARKS
   TC - TEMPERATURE IN CELSIUS
  WCI - WIND CHILL INDEX
   HX - HEAT INDEX
  VSB - VISIBILITY




USA.gov is the U.S. government's official web portal to all federal, state and local government web resources and services.